Weather in Yushkovo

Russia / Chelyabinsk Oblast     56°04′15″N   61°22′15″E
temp.,
°C
wind,
m/s
gust,
m/s
humid.,
%
clouds,
%
prec.,
mm/h
press.,
hPa
HPBL,
m
1 march, mon
mon123:00−17ne379799 0.6 1012223
02:00−17ne369797 0.1 1013245
05:00−18nne359798 0.3 1014204
08:00−19nne249893 0.2 1015111
11:00−17nne239191 0.3 1017308
14:00−14ne2287100 0.1 1017417
17:00−14ese1192100 0.1 101776
20:00−18s129794 0.0 101720
2 march, tue
tue223:00−18ssw239786 0.1 101725
02:00−19sw339874 0.0 101637
05:00−18wsw349451 0.0 101568
08:00−18wsw479150 0.0 1013133
11:00−14sw588845 0.0 1012365
14:00−11s479226 0.0 1008345
17:00−10s599252 0.0 1005314
20:00−10s51093100 0.0 1003277
3 march, wed
wed323:00−8sw4994100 0.2 1003412
02:00−10sw41188100 0.1 1001537
05:00−9ssw41094100 0.3 1000578
08:00−11ssw599197 0.1 998219
11:00−7ssw588878 0.1 998348
14:00−1wsw588249 0.0 997979
17:00−1wsw488574 0.1 998482
20:00−5sw458674 0.0 99981
4 march, thu
thu423:00−7wsw469181 0.0 999117
02:00−9wsw349224 0.0 99860
05:00−7wsw359652 0.2 998130
08:00−7wsw489598 0.5 997328
11:00−5w699199 1.0 998611
14:00−4wnw71081100 0.1 9991044
17:00−6w6118187 0.1 1001735
20:00−11wsw488821 0.0 1002111
5 march, fri
fri523:00−12sw488910 0.0 1004128
02:00−10ssw6118867 0.0 1002379
05:00−8ssw6148783 0.1 999644
08:00−7ssw71485100 0.1 996481
11:000wsw91782100 0.1 9941497
14:000wsw10169092 0.3 9961330
17:00−2wsw6157363 0.6 10001299
20:00−7wsw617800 0.0 1003707